Regional Weather Roundup
Issued by NWS

Home | Current Version | Previous Version | Text Only | Print | Product List | Glossary Off
Versions: 1 2 3 4 5 6 7 8 9 10 11 12 13 14 15 16 17 18 19 20 21 22 23 24 25 26 27 28 29 30 31 32 33 34 35 36 37 38 39 40 41 42 43 44 45 46 47 48 49 50

000
ASUS45 KABQ 141110
RWRNM
NEW MEXICO REGIONAL WEATHER ROUNDUP
NATIONAL WEATHER SERVICE ALBUQUERQUE NM
400 AM MST THU DEC 14 2017

NOTE: "FAIR" MEANS FEW OR NO CLOUDS BELOW 12,000 FEET AGL WITH NO
       SIGNIFICANT WEATHER OR OBSTRUCTIONS TO VISION.

      THIS PRODUCT IS RELEASED AS TWO VERSIONS.  ONE VERSION NEAR
      THE TOP OF THE HOUR CONTAINING PRELIMINARY DATA FROM ALBUQUERQUE
      AND OTHER STATIONS.  A FINAL VERSION WITH ADDITIONAL DATA IS
      ISSUED ABOUT 10 MINUTES AFTER THE HOUR.

NMZ501-503-504-510>518-141200-
NORTHWEST PLATEAU/NORTHCENTRAL MOUNTAINS

CITY           SKY/WX    TMP DP  RH WIND       PRES   REMARKS
FARMINGTON     FAIR      28   5  37 CALM      29.97S
LOS ALAMOS     FAIR      35   6  29 SW5       30.01F WCI  31
SANTA FE       FAIR      34   9  35 S7        30.00F WCI  28
TAOS           FAIR      36  12  37 SE17      30.01F WCI  26
ANGEL FIRE     FAIR      24  13  65 CALM      30.07S

$$
NMZ402-403-502-505>509-141200-
WESTCENTRAL MOUNTAINS/SOUTHWEST MOUNTAINS

CITY           SKY/WX    TMP DP  RH WIND       PRES   REMARKS
GALLUP         FAIR      21   1  41 E3        30.01F
GRANTS         FAIR      17  -1  46 W6        30.05F WCI   8
SILVER CITY    FAIR      28  15  57 NW8       30.01S WCI  20

$$
NMZ407-409-411-412-141200-
SOUTHERN DESERTS

CITY           SKY/WX    TMP DP  RH WIND       PRES   REMARKS
DEMING         FAIR      33  16  49 SW6       29.99S WCI  28
LAS CRUCES     FAIR      30  19  62 NW3       29.99S
HOLLOMAN AFB   FAIR      26   2  35 CALM      30.00S
ALAMOGORDO     FAIR      30   9  40 N5        29.98F WCI  25
T OR C         FAIR      33   9  36 N3        29.98F

$$
NMZ519>523-141200-
CENTRAL VALLEYS/CENTRAL HIGHLANDS

CITY           SKY/WX    TMP DP  RH WIND       PRES   REMARKS
ALBUQUERQUE    FAIR      29   7  39 N7        30.01R WCI  22
MORIARTY ARPT  FAIR      11  -1  60 NE3       30.05R
CLINES CORNERS FAIR      28   6  39 E9        30.05R WCI  19
BELEN          FAIR      19   2  47 CALM      30.01S
SOCORRO        FAIR      26   1  34 N6        30.01R WCI  20

$$
NMZ524>526-539-540-141200-
SOUTHCENTRAL MOUNTAINS

CITY           SKY/WX    TMP DP  RH WIND       PRES   REMARKS
RUIDOSO        FAIR      30   1  29 CALM      30.04S

$$
NMZ527>531-141200-
NORTHEAST HIGHLANDS/NORTHEAST PLAINS

CITY           SKY/WX    TMP DP  RH WIND       PRES   REMARKS
LAS VEGAS      FAIR      26  10  50 E8        30.07R WCI  18
RATON          CLOUDY    35  11  36 N9        30.06F WCI  28
CLAYTON        CLOUDY    33  15  47 N10       30.10R WCI  25

$$
NMZ532>537-141200-
EASTCENTRAL PLAINS

CITY           SKY/WX    TMP DP  RH WIND       PRES   REMARKS
SANTA ROSA     FAIR      27  15  61 N3        30.05R
TUCUMCARI      FAIR      29  14  53 N9        30.05R WCI  20
CANNON AFB     FAIR      32  13  45 NE10      30.05R WCI  24
CLOVIS AIRPORT FAIR      29  15  56 N12       30.05R WCI  19

$$
NMZ028-029-538-141200-
SOUTHEAST PLAINS

CITY           SKY/WX    TMP DP  RH WIND       PRES   REMARKS
ROSWELL        FAIR      29  10  45 N10       30.01R WCI  20
ARTESIA        FAIR      30   9  40 NW8       30.01R WCI  23
CARLSBAD       FAIR      35  18  49 NW8       29.99R WCI  29
HOBBS          FAIR      28  14  54 N10       29.99R WCI  19


$$




USA.gov is the U.S. government's official web portal to all federal, state and local government web resources and services.